Salem, OR

4:55 PM PDT on April 29, 2017 (GMT -0700)
McNary

Weather History for KSLE - November, 2013

Change the Weather History Date:

Sunday, November 3, 2013

  Actual Average Record
Temperature  
Mean Temperature 46 °F 48 °F  
Max Temperature 51 °F 56 °F 74 °F (2010)
Min Temperature 41 °F 40 °F 12 °F (1935)
Degree Days  
Heating Degree Days 19 17  
Month to date heating degree days 45 49  
Since 1 July heating degree days 515 581  
Cooling Degree Days 0 0  
Month to date cooling degree days 0 0  
Year to date cooling degree days 502 290  
Moisture  
Dew Point 42 °F    
Average Humidity 82    
Maximum Humidity 93    
Minimum Humidity 71    
Precipitation  
Precipitation 0.07 in 0.17 in 1.14 in (1983)
Month to date precipitation 0.49 0.49  
Year to date precipitation 20.14 26.80  
Snow  
Snow 0.00 in - - ()
Snow Depth 0.00 in    
Sea Level Pressure  
Sea Level Pressure 30.15 in    
Wind  
Wind Speed 5 mph (SSW)    
Max Wind Speed 12 mph    
Max Gust Speed 14 mph    
Visibility 10 miles    
Events Rain    
T = Trace of Precipitation, MM = Missing Value Source: NWS Daily Summary

Daily Weather History Graph

Daily Weather History Graph

Search for Another Location

Airport or City:

Trip Planner

Search our weather history database for the weather conditions in past years. The results will help you decide how hot, cold, wet, or windy it might be!

Date:

Astronomy

Nov. 03, 2013 Rise Set
Actual Time 6:53 AM PST 4:56 PM PST
Civil Twilight 6:22 AM PST 5:27 PM PST
Nautical Twilight 5:47 AM PST 6:02 PM PST
Astronomical Twilight 5:13 AM PST 6:36 PM PST
Moon 7:04 AM PST (11/3) 5:14 PM PST (11/3)
Length of Visible Light 11h 05m
Length of Day
10h 03m
New Moon, 0% of the Moon is Illuminated
Nov 3
New Moon
Nov 9
First Quarter
Nov 17
Full
Nov 25
Last Quarter
Dec 2
New

Hourly Weather History & Observations

Time (PST) Temp. Windchill Dew Point Humidity Pressure Visibility Wind Dir Wind Speed Gust Speed Precip Events Conditions
12:56 AM 46.0 °F 43.1 °F 42.1 °F 86% 30.10 in 10.0 mi SSW 5.8 mph - 0.01 in Rain Light Rain
1:56 AM 44.1 °F 40.1 °F 39.9 °F 85% 30.10 in 10.0 mi South 6.9 mph - 0.00 in   Clear
1:56 AM 45.0 °F 42.6 °F 42.1 °F 90% 30.12 in 10.0 mi SW 4.6 mph - 0.03 in   Overcast
2:56 AM 44.1 °F 42.5 °F 41.0 °F 89% 30.12 in 10.0 mi SSW 3.5 mph - N/A   Overcast
3:56 AM 44.1 °F - 39.0 °F 82% 30.12 in 10.0 mi Calm Calm - N/A   Mostly Cloudy
4:56 AM 42.1 °F 37.7 °F 39.0 °F 89% 30.13 in 10.0 mi South 6.9 mph - N/A   Scattered Clouds
5:56 AM 43.0 °F - 39.9 °F 89% 30.14 in 10.0 mi Calm Calm - N/A   Overcast
6:56 AM 42.1 °F 39.2 °F 39.0 °F 89% 30.14 in 10.0 mi SSW 4.6 mph - N/A   Partly Cloudy
7:56 AM 42.1 °F 40.2 °F 39.9 °F 92% 30.16 in 10.0 mi SSE 3.5 mph - N/A   Partly Cloudy
8:56 AM 46.0 °F 44.8 °F 42.1 °F 86% 30.17 in 10.0 mi SSE 3.5 mph - N/A   Overcast
9:56 AM 48.9 °F - 41.0 °F 74% 30.18 in 10.0 mi SW 4.6 mph - N/A   Overcast
10:56 AM 50.0 °F - 43.0 °F 77% 30.18 in 10.0 mi South 11.5 mph - N/A   Overcast
11:56 AM 51.1 °F - 43.0 °F 74% 30.17 in 10.0 mi SSW 9.2 mph - N/A   Mostly Cloudy
12:56 PM 51.1 °F - 43.0 °F 74% 30.15 in 10.0 mi South 9.2 mph - N/A   Mostly Cloudy
1:56 PM 50.0 °F - 43.0 °F 77% 30.15 in 10.0 mi WSW 6.9 mph - 0.00 in Rain Light Rain
2:56 PM 50.0 °F - 44.1 °F 80% 30.16 in 10.0 mi SW 6.9 mph - 0.00 in   Overcast
3:56 PM 48.9 °F - 44.1 °F 83% 30.15 in 10.0 mi SSE 4.6 mph - N/A   Overcast
4:56 PM 48.0 °F - 44.1 °F 86% 30.15 in 9.0 mi SW 3.5 mph - 0.01 in Rain Light Rain
5:56 PM 46.9 °F - 44.1 °F 90% 30.14 in 10.0 mi South 4.6 mph - 0.00 in Rain Light Rain
6:56 PM 46.9 °F - 45.0 °F 93% 30.15 in 10.0 mi SSE 3.5 mph - 0.01 in Rain Light Rain
7:56 PM 46.9 °F - 44.1 °F 90% 30.15 in 10.0 mi South 3.5 mph - 0.01 in Rain Light Rain
8:56 PM 46.0 °F 44.8 °F 44.1 °F 93% 30.15 in 10.0 mi South 3.5 mph - 0.00 in   Overcast
9:56 PM 46.0 °F - 43.0 °F 89% 30.16 in 10.0 mi Calm Calm - 0.00 in Rain Light Rain
10:56 PM 46.0 °F - 43.0 °F 89% 30.16 in 10.0 mi Calm Calm - 0.00 in   Overcast